Hourly Weather Suhodol

Today, 25 January, Monday

Time Temperature Precipitation Wind Pressure Humidity
00:00 -2°C° 0 mm 6 mps 737 mmHg 91%
01:00 -2°C° 0 mm 6 mps 737 mmHg 87%
02:00 -2°C° 0 mm 6 mps 737 mmHg 83%
03:00 -2°C° 0 mm 6 mps 737 mmHg 84%
04:00 -3°C° 0 mm 6 mps 737 mmHg 84%
05:00 -3°C° 0 mm 7 mps 736 mmHg 85%
06:00 -4°C° 0 mm 7 mps 736 mmHg 87%
07:00 -4°C° 0 mm 6 mps 736 mmHg 89%
08:00 -5°C° 0 mm 6 mps 736 mmHg 91%
09:00 -2°C° 0 mm 5 mps 736 mmHg 95%
10:00 -2°C° 0 mm 5 mps 736 mmHg 97%
11:00 -1°C° 0 mm 5 mps 736 mmHg 98%
12:00 -1°C° 0.2 mm 5 mps 736 mmHg 99%
13:00 -1°C° 0.2 mm 5 mps 736 mmHg 99%
14:00 -1°C° 0.2 mm 4 mps 736 mmHg 99%
15:00 -1°C° 0.2 mm 4 mps 736 mmHg 99%
16:00 -1°C° 0.2 mm 4 mps 736 mmHg 98%
17:00 -1°C° 0.2 mm 4 mps 736 mmHg 98%
18:00 -1°C° 0 mm 4 mps 736 mmHg 98%
19:00 -1°C° 0 mm 4 mps 737 mmHg 98%
20:00 -1°C° 0 mm 4 mps 737 mmHg 98%
21:00 -1°C° 0 mm 4 mps 736 mmHg 98%
22:00 -1°C° 0 mm 4 mps 736 mmHg 97%
23:00 -1°C° 0 mm 5 mps 736 mmHg 97%

Tomorrow, 26 January, Tuesday

Time Temperature Precipitation Wind Pressure Humidity
00:00 -2°C° 0.1 mm 5 mps 736 mmHg 97%
01:00 -2°C° 0.1 mm 5 mps 736 mmHg 97%
02:00 -2°C° 0.1 mm 5 mps 736 mmHg 97%
03:00 -3°C° 0 mm 6 mps 735 mmHg 97%
04:00 -3°C° 0 mm 6 mps 735 mmHg 96%
05:00 -3°C° 0 mm 7 mps 734 mmHg 95%
06:00 -2°C° 0.1 mm 7 mps 734 mmHg 96%
07:00 -2°C° 0.1 mm 7 mps 734 mmHg 96%
08:00 -2°C° 0.1 mm 8 mps 733 mmHg 96%
09:00 -2°C° 0.2 mm 8 mps 733 mmHg 95%
10:00 -2°C° 0.2 mm 8 mps 733 mmHg 94%
11:00 -3°C° 0.2 mm 9 mps 732 mmHg 93%
12:00 -2°C° 0 mm 8 mps 732 mmHg 95%
13:00 -2°C° 0 mm 7 mps 732 mmHg 96%
14:00 -2°C° 0 mm 6 mps 731 mmHg 97%
15:00 -2°C° 0 mm 7 mps 731 mmHg 97%
16:00 -2°C° 0 mm 7 mps 730 mmHg 96%
17:00 -2°C° 0 mm 7 mps 729 mmHg 95%
18:00 -2°C° 1.1 mm 7 mps 728 mmHg 96%
19:00 -3°C° 1.1 mm 7 mps 728 mmHg 97%
20:00 -4°C° 1.1 mm 8 mps 727 mmHg 97%
21:00 -3°C° 0.5 mm 7 mps 727 mmHg 94%
22:00 -3°C° 0.5 mm 7 mps 727 mmHg 90%
23:00 -3°C° 0.5 mm 6 mps 727 mmHg 87%

Day after tomorrow, 27 January, Wednesday

Time Temperature Precipitation Wind Pressure Humidity
00:00 -4°C° 0.1 mm 7 mps 727 mmHg 89%
01:00 -5°C° 0.1 mm 8 mps 727 mmHg 90%
02:00 -6°C° 0.1 mm 8 mps 727 mmHg 92%
03:00 -6°C° 0.1 mm 8 mps 727 mmHg 92%
04:00 -6°C° 0.1 mm 9 mps 727 mmHg 92%
05:00 -6°C° 0.1 mm 9 mps 727 mmHg 92%
06:00 -6°C° 0.1 mm 9 mps 727 mmHg 92%
07:00 -6°C° 0.1 mm 9 mps 727 mmHg 92%
08:00 -6°C° 0.1 mm 8 mps 727 mmHg 92%
09:00 -6°C° 0.3 mm 9 mps 728 mmHg 93%
10:00 -6°C° 0.3 mm 9 mps 728 mmHg 93%
11:00 -6°C° 0.3 mm 9 mps 728 mmHg 94%
12:00 -5°C° 0.2 mm 9 mps 728 mmHg 93%
13:00 -5°C° 0.2 mm 9 mps 729 mmHg 92%
14:00 -5°C° 0.2 mm 9 mps 729 mmHg 91%
15:00 -5°C° 0.1 mm 9 mps 729 mmHg 90%
16:00 -6°C° 0.1 mm 9 mps 729 mmHg 90%
17:00 -6°C° 0.1 mm 8 mps 730 mmHg 89%
18:00 -6°C° 0 mm 8 mps 730 mmHg 89%
19:00 -6°C° 0 mm 7 mps 730 mmHg 89%
20:00 -4°C° 0 mm 7 mps 731 mmHg 90%
21:00 -4°C° 0 mm 7 mps 731 mmHg 90%
22:00 -6°C° 0 mm 7 mps 731 mmHg 90%
23:00 -5°C° 0 mm 6 mps 732 mmHg 91%

28 January, Thursday

Time Temperature Precipitation Wind Pressure Humidity
00:00 -5°C° 0 mm 6 mps 732 mmHg 91%
01:00 -5°C° 0 mm 6 mps 732 mmHg 91%
02:00 -5°C° 0 mm 5 mps 732 mmHg 91%
03:00 -5°C° 0 mm 5 mps 732 mmHg 92%
04:00 -6°C° 0 mm 5 mps 732 mmHg 93%
05:00 -6°C° 0 mm 5 mps 732 mmHg 94%
06:00 -5°C° 0 mm 4 mps 732 mmHg 94%
07:00 -7°C° 0 mm 4 mps 733 mmHg 95%
08:00 -7°C° 0 mm 4 mps 733 mmHg 95%
09:00 -7°C° 0 mm 4 mps 733 mmHg 94%
10:00 -5°C° 0 mm 3 mps 733 mmHg 94%
11:00 -5°C° 0 mm 3 mps 733 mmHg 93%
12:00 -5°C° 0 mm 3 mps 733 mmHg 93%
13:00 -4°C° 0 mm 3 mps 733 mmHg 92%
14:00 -3°C° 0 mm 2 mps 732 mmHg 92%
15:00 -4°C° 0 mm 2 mps 732 mmHg 93%
16:00 -5°C° 0 mm 2 mps 733 mmHg 93%
17:00 -6°C° 0 mm 2 mps 733 mmHg 94%
18:00 -6°C° 0 mm 2 mps 733 mmHg 94%
19:00 -6°C° 0 mm 2 mps 733 mmHg 94%
20:00 -6°C° 0 mm 2 mps 733 mmHg 95%

29 January, Friday

Time Temperature Precipitation Wind Pressure Humidity

30 January, Saturday

Time Temperature Precipitation Wind Pressure Humidity
Show more